Tracking 31027 objects as of 19-Jul-2025
HD Live streaming from Space Station
objects crossing your sky now

METEOR 1-25

Track METEOR 1-25 now!
10-day predictions
METEOR 1-25 is classified as:


NORAD ID: 8845
Int'l Code: 1976-043A
Perigee: 831.2 km
Apogee: 889.6 km
Inclination: 81.3 °
Period: 102.0 minutes
Semi major axis: 7231 km
RCS: 4.2593 m2 (large)
Launch date: May 15, 1976
Source: Commonwealth of Independent States (former USSR) (CIS)
Launch site: PLESETSK MISSILE AND SPACE COMPLEX (PKMTR)
Your satellite tracking list
COSMOS 1743
Track 1 satellite(s)




NASA's NSSDC Master Catalog

Two Line Element Set (TLE):
1 08845U 76043A   25199.47255646  .00000168  00000-0  84628-4 0  9997
2 08845  81.2629 280.8632 0040403 157.9228 202.3695 14.11784070677830
Source of the keplerian elements: AFSPC